Home   Weather   Idaho Falls   Past weeks

Flag for USA Past Weather in Idaho Falls, Idaho, USA — Yesterday and Last 2 Weeks

Now
29 °F

Overcast.


Feels Like: 19 °F
Forecast: 27 / 34 °F
Wind: 12 mph from Southwest

Location: Fanning Field

Current Time: Dec 4, 2016 at 1:10:45 am

Latest Report: Dec 3, 2016 at 11:53 pm


Visibility: 10 mi

Pressure: 30.21 "Hg (25.24 "Hg at 1429m altitude)

Humidity: 82%

Dew Point: 24 °F

Location of Idaho FallsLocation

Past Weather in Idaho Falls — Graph

°F

Idaho Falls Temperature Yesterday

Maximum temperature yesterday: 31 °F (at 12:53 pm)
Minimum temperature yesterday: 25 °F (at 1:53 am)
Average temperature yesterday: 28 °F

High & Low Weather Summary for the Past Weeks

 TemperatureHumidityPressure
High55 °F (Nov 20, 1:53 pm)97% (Nov 21, 10:01 pm)30.50 "Hg (Nov 21, 10:01 pm)
Low11 °F (Dec 2, 1:53 am)23% (Nov 26, 2:58 pm)29.48 "Hg (Nov 27, 3:53 am)
Average31 °F76%30.08 "Hg
* Reported Nov 18 11:53 pm — Dec 3 11:53 pm, Idaho Falls, Weather by CustomWeather, © 2016

Note: Actual official high and low records may vary slightly from our data, if they occured in-between our weather recording intervals... More about our weather records

Advertising

Idaho Falls Weather History for the Previous 24 Hours

Scroll right to see more
 ConditionsComfort  
Time TempWeatherWind HumidityBarometerVisibility
11:53 pm
Sat, Dec 3
29 °FOvercast.12 mph82%30.21 "Hg10 mi
10:53 pm30 °FOvercast.13 mph82%30.23 "Hg10 mi
9:53 pm30 °FOvercast.13 mph82%30.25 "Hg10 mi
8:53 pm26 °FOvercast.3 mph84%30.28 "Hg10 mi
7:53 pm25 °FMostly cloudy.No wind85%30.28 "Hg10 mi
6:53 pm26 °FMostly cloudy.3 mph81%30.29 "Hg10 mi
5:53 pm27 °FMostly cloudy.7 mph81%30.28 "Hg10 mi
4:53 pm30 °FOvercast.5 mph75%30.28 "Hg10 mi
3:53 pm31 °FOvercast.7 mph73%30.29 "Hg10 mi
2:53 pm31 °FOvercast.12 mph67%30.27 "Hg10 mi
1:53 pm31 °FOvercast.16 mph67%30.27 "Hg10 mi
12:53 pm31 °FOvercast.12 mph67%30.29 "Hg10 mi
11:53 am30 °FPartly sunny.13 mph66%30.30 "Hg10 mi
10:53 am29 °FPartly sunny.16 mph66%30.32 "Hg10 mi
9:53 am28 °FBroken clouds.14 mph72%30.32 "Hg10 mi
8:53 am27 °FBroken clouds.15 mph72%30.30 "Hg10 mi
7:53 am25 °FMostly cloudy.8 mph72%30.31 "Hg10 mi
6:53 am25 °FMostly cloudy.7 mph75%30.30 "Hg10 mi
5:53 am25 °FMostly cloudy.5 mph75%30.31 "Hg10 mi
4:53 am25 °FMostly cloudy.6 mph72%30.28 "Hg10 mi
3:53 am25 °FOvercast.10 mph75%30.29 "Hg9 mi
1:53 am25 °FMostly cloudy.15 mph81%30.31 "Hg10 mi
Weather by CustomWeather, © 2016

See weather overviewHow to use our weather pages